Location: Pitton
(51.0667°N, 1.7000°W)
Time: 15:07:30
(UTC+00:00)

Mayak - Pass Details

Date: 17 September 2019
Orbit: 582 x 602 km, 97.6° (Epoch: 21 October)

Event Time Altitude Azimuth Distance (km) Brightness Sun altitude
Rises 23:11:00 0° 11° (N) 2,819 3.0 -35.8°
Reaches altitude 10° 23:13:11 10° 8° (N) 1,913 2.0 -35.9°
Enters shadow 23:13:49 14° 6° (N) 1,659 1.7 -35.9°
